Seretse Khama, Botswana

3:50 AM CAT on August 24, 2016 (GMT +0200)
Sir Seretse Khama International

Weather History for FBSK - January, 2014

Change the Weather History Date:

Saturday, January 11, 2014

  Actual Average Record
Temperature  
Mean Temperature 83 °F -  
Max Temperature 98 °F 86 °F 104 °F (2001)
Min Temperature 68 °F 66 °F 55 °F (1998)
Cooling Degree Days 18    
Growing Degree Days 33 (Base 50)    
Moisture  
Dew Point 51 °F    
Average Humidity 36    
Maximum Humidity 57    
Minimum Humidity 13    
Precipitation  
Precipitation 0.00 in - - ()
Sea Level Pressure  
Sea Level Pressure 30.01 in    
Wind  
Wind Speed 6 mph ()    
Max Wind Speed 20 mph    
Max Gust Speed -    
Visibility 6.2 miles    
Events      
Averages and records for this station are not official NWS values.
T = Trace of Precipitation, MM = Missing Value Source: Averaged Metar Reports

Daily Weather History Graph

Daily Weather History Graph

Search for Another Location

Airport or City:

Trip Planner

Search our weather history database for the weather conditions in past years. The results will help you decide how hot, cold, wet, or windy it might be!

Date:

Astronomy

Jan. 11, 2014 Rise Set
Actual Time 5:37 AM CAT 7:10 PM CAT
Civil Twilight 5:12 AM CAT 7:35 PM CAT
Nautical Twilight 4:42 AM CAT 8:05 PM CAT
Astronomical Twilight 4:10 AM CAT 8:37 PM CAT
Moon 3:22 PM CAT (1/11) 1:48 AM CAT (1/11)
Length of Visible Light 14h 22m
Length of Day
13h 32m
Waxing Gibbous, 81% of the Moon is Illuminated
Jan 11
Waxing Gibbous
Jan 16
Full
Jan 24
Last Quarter
Jan 30
New
Feb 6
First Quarter

Hourly Weather History & Observations

Time (CAT) Temp. Heat Index Dew Point Humidity Pressure Visibility Wind Dir Wind Speed Gust Speed Precip Events Conditions
12:00 AM 71.6 °F - 42.8 °F 35% 29.95 in - West 3.5 mph - N/A   Clear
1:00 AM 69.8 °F - 48.2 °F 46% 29.95 in - SW 3.5 mph - N/A   Clear
2:00 AM 68.0 °F - 50.0 °F 52% 29.95 in - West 3.5 mph - N/A   Clear
5:00 AM 68.0 °F - 50.0 °F 52% 29.98 in - SSW 4.6 mph - N/A   Clear
6:00 AM 68.0 °F - 48.2 °F 49% 30.01 in - WSW 4.6 mph - N/A   Clear
7:00 AM 73.4 °F - 48.2 °F 41% 30.01 in - West 4.6 mph - N/A   Clear
8:00 AM 80.6 °F - 44.6 °F 28% 30.04 in - SSE 8.1 mph - N/A   Clear
9:00 AM 82.4 °F 81.7 °F 55.4 °F 39% 30.04 in - ENE 13.8 mph - N/A   Clear
10:00 AM 86.0 °F 84.9 °F 57.2 °F 37% 30.04 in - ENE 13.8 mph - N/A   Clear
11:00 AM 87.8 °F 86.1 °F 55.4 °F 33% 30.04 in 6.2 mi NE 11.5 mph - N/A   Partly Cloudy
12:00 PM 91.4 °F 89.4 °F 55.4 °F 29% 30.04 in 6.2 mi NNE 9.2 mph - N/A   Partly Cloudy
1:00 PM 93.2 °F - 48.2 °F 21% 30.01 in 6.2 mi Variable 4.6 mph - N/A   Scattered Clouds
2:00 PM 96.8 °F - 44.6 °F 17% 29.98 in 6.2 mi North 6.9 mph - N/A   Partly Cloudy
3:00 PM 95.0 °F - 39.2 °F 14% 29.95 in 6.2 mi ENE 5.8 mph - N/A   Scattered Clouds
4:00 PM 96.8 °F - 39.2 °F 14% 29.95 in 6.2 mi SSW 8.1 mph - N/A   Scattered Clouds
5:00 PM 98.6 °F - 39.2 °F 13% 29.92 in - West 4.6 mph - N/A   Clear
6:00 PM 91.4 °F - 50.0 °F 24% 29.95 in - ENE 19.6 mph - N/A   Clear
7:00 PM 86.0 °F 84.2 °F 53.6 °F 33% 29.98 in - ENE 19.6 mph - N/A   Clear
8:00 PM 80.6 °F 81.5 °F 60.8 °F 51% 30.04 in - NE 11.5 mph - N/A   Clear
9:00 PM 80.6 °F 81.5 °F 60.8 °F 51% 30.09 in - ENE 8.1 mph - N/A   Clear
10:00 PM 78.8 °F - 60.8 °F 54% 30.12 in - NE 11.5 mph - N/A   Clear
11:00 PM 77.0 °F - 60.8 °F 57% 30.12 in - NE 9.2 mph - N/A   Clear